Regional Weather Roundup
Issued by NWS Wakefield, VA

Home | Current Version | Previous Version | Text Only | Print | Product List | Glossary On
Versions: 1 2 3 4 5 6 7 8 9 10 11 12 13 14 15 16 17 18 19 20 21 22 23 24 25 26 27
000
ASUS41 KAKQ 240910
RWRAKQ

REGIONAL WEATHER ROUNDUP
NATIONAL WEATHER SERVICE WAKEFIELD VA
500 AM EDT THU APR 24 2014

Note: "fair" indicates few or no clouds below 12,000 feet with no
significant weather and/or obstructions to visibility. * = Denotes
station may not report precipitation (e.g., rain,snow,etc.),
thunder or fog.

VAZ042-051-052>054-056-241000-
NORTHERN VIRGINIA

CITY           SKY/WX    TMP DP  RH WIND       PRES   REMARKS
WASH NATIONAL  CLEAR     47  25  42 NW12      30.06R
DULLES         CLEAR     41  24  51 NW12      30.06R
FORT BELVOIR   CLEAR     44  26  48 NW9       30.06R
QUANTICO       CLEAR     45  27  49 NW10      30.07R
FREDERICKSBRG* CLEAR     46  30  53 N5        30.05S
STAFFORD*      CLEAR     42  30  64 CALM      30.10R
WARRENTON      CLEAR     38  33  82 E3        30.05S
CULPEPER*      CLEAR     37  28  70 CALM      30.07R
MANASSAS*      CLEAR     37  34  87 CALM      30.06S
LEESBURG*      CLEAR     43  27  52 NW12      30.06R
WINCHESTER     CLEAR     39  21  48 NW12      30.06R
$$

VAZ048-049-060>072-079>083-241000-
CENTRAL AND SOUTH CENTRAL VIRGINIA...AND NORTH CENTRAL NORTH CAROLINA

CITY           SKY/WX    TMP DP  RH WIND       PRES   REMARKS
RICHMOND       CLEAR     42  30  62 CALM      30.05R
CHESTERFIELD*  SUNNY     37  21  52 CALM      30.07R
HANOVER        CLEAR     37  31  78 CALM      30.07R
TAPPAHANNOCK*  CLEAR     43  26  52 NW3       30.05S
CHARLOTTSVILLE CLEAR     44  25  47 NW5       30.05R
ORANGE*        CLEAR     39  30  70 NW3       30.06S
LOUISA*        CLEAR     32  28  86 CALM      30.04R
FARMVILLE*     CLEAR     43  28  56 CALM      30.05R
SOUTH HILL*    CLEAR     43  34  70 CALM      30.11R
ROANOKE RAPIDS SUNNY     43  36  75 CALM      30.06R
RALEIGH        PTCLDY    46  33  60 E3        30.05R
$$

VAZ088>098-241000-
SOUTHEAST VIRGINIA

CITY           SKY/WX    TMP DP  RH WIND       PRES   REMARKS
NORFOLK        CLEAR     50  32  50 NW8       30.04R
VIRGINIA BEACH CLEAR     50  29  44 N13       30.03R
NORFOLK NAVAL  CLEAR     50  30  46 N17       30.05R
WEST POINT*    CLEAR     47  29  50 CALM      30.07R
NEWPORT NEWS   CLEAR     49  30  48 N6        30.05R
LANGLEY AFB    CLEAR     47  30  52 N7        30.05R
FORT EUSTIS    CLEAR     49  33  54 N7        30.03R
WILLIAMSBURG*  CLEAR     46  34  61 N5        30.06R
FRANKLIN*      CLEAR     43  34  70 CALM      30.06R
WAKEFIELD      CLEAR     39  33  79 CALM      30.06R
$$

VAZ020-022-025-037-045-241000-
WESTERN AND SOUTHWEST VIRGINIA

CITY           SKY/WX    TMP DP  RH WIND       PRES   REMARKS
STAUNTON*      CLEAR     32  27  81 CALM      30.08R
HOT SPRINGS VA CLEAR     34  28  80 NW12      30.07R
LYNCHBURG      CLEAR     40  31  70 CALM      30.07R
DANVILLE       CLEAR     40  33  76 CALM      30.06R
MARTINSVILLE   CLEAR     34  33  94 CALM      30.09R
ROANOKE        CLEAR     42  30  62 CALM      30.09R
BLACKSBURG     CLEAR     36  34  93 CALM      30.08R
DUBLIN*        CLEAR     40  31  67 CALM      30.08R
MARION*        CLEAR     33  28  84 CALM      30.09R
HILLSVILLE*    CLEAR     43  25  49 N3        30.08R
RICHLANDS*     SUNNY     46  29  51 E6        30.05S
WISE*          CLEAR     45  27  49 NE3       30.07R
ABINGDON*      CLEAR     42  29  59 SE3       30.05S
$$

MDZ021>025-VAZ099-100-241000-
SOUTHERN MARYLAND AND THE DELMARVA PENINSULA

CITY           SKY/WX    TMP DP  RH WIND       PRES   REMARKS
PATUXENT RIVER CLEAR     45  28  51 NW9       30.03R
BAY BRIDGE APT CLEAR     45  30  57 NW13G18   30.02R
LEONARDTOWN    CLEAR     43  28  56 W6        30.05R
DOVER          CLEAR     42  30  62 W8        29.94R
GEORGETOWN     CLEAR     43  29  57 W5        29.99R
EASTON         CLEAR     46  32  58 NW10G16   30.04R
CAMBRIDGE      CLEAR     48  30  49 NW10G18   30.01R
SALISBURY      CLEAR     46  30  53 W7        30.00R
OCEAN CITY     CLEAR     41  31  67 NW6       29.99R
WALLOPS ISLAND CLEAR     46  32  58 NW10      30.00R
ACCOMACK*      CLEAR     46  28  49 NW15G23   30.02R
$$

NCZ012>017-030>032-241000-
EASTERN NORTH CAROLINA

CITY           SKY/WX    TMP DP  RH WIND       PRES   REMARKS
ELIZABETH CITY CLEAR     43  34  70 NW6       30.04R
AHOSKIE*       CLEAR     42  34  73 CALM      30.06R
EDENTON*       CLEAR     44  37  78 CALM      30.05R
CURRITUCK*     CLEAR     49  31  50 N8        30.04R
KILL DEVIL HLS CLEAR     48  37  65 N7        30.01S
MANTEO         CLEAR     49  37  62 NE14      30.03S
CAPE HATTERAS  CLEAR     52  39  61 NE13G24   30.02R
GOLDSBORO      CLEAR     49  37  63 NE3       30.03R
WASHINGTON     CLEAR     46  39  76 NE6       30.05R
GREENVILLE     CLEAR     41  39  93 NE5       30.07R
NEW BERN       CLEAR     51  41  68 N10       30.04R
WILMINGTON     CLEAR     50  40  68 NE8       30.01R
$$

VAZ048-241000-
ELSEWHERE

CITY           SKY/WX    TMP DP  RH WIND       PRES   REMARKS
HARRISBURG PA  CLEAR     43  18  36 NW10      30.00R
BALTIMORE      CLEAR     38  28  67 W7        30.02R
ANNAPOLIS      CLEAR     46  29  51 NW7       30.02R
ANDREWS AFB    CLEAR     44  27  50 W8        30.04R
WILMINGTON DE  CLEAR     41  26  55 W9        29.98R
PHILADELPHIA   CLEAR     45  21  38 W9        29.96R
WILDWOOD NJ*   CLEAR     46  27  46 NW10G26   29.96R
ATLANTIC CITY  CLEAR     41  27  57 W12       29.93R
HENDERSON NC   CLEAR     44  32  61 NE3       30.05S
GREENSBORO     CLEAR     48  30  49 N5        30.04R
ROCKY MOUNT    CLEAR     41  36  82 CALM      30.05R
FAYETTEVILLE   CLEAR     47  37  68 N6        30.03R
CHARLOTTE      CLEAR     52  31  44 E6        30.04R
$$

VAZ100-241000-
MARINE

STATION/POSITION TIME  TEMP    WIND        PRES    WAVE   SWELL
                       AIR SEA DIR/SP/G            HT/PER HT/PER
                 (UTC) (F)     (DEG/KT/KT) (MB)    (FT/S) (FT/S)
44066 TX TWR #4  0900   45 45  310/ 25/ 31 1008.3R   9/ 7
CAPE MAY NJ      0900   48 56  330/ 10/ 21 1013.9R
LEWES DE         0900   45 52  290/ 13/ 16 1014.1S
15NM E FENWICK I 0900   46 46              1014.1R   4/ 6
OCEAN-CITY-INLET 0900   44 48  320/  8/ 11 1014.7R
WACHAPREAGUE VA  0900   48 56  300/  3/  8 1016.2R
THOMAS POINT MD  0900   46 53  300/ 15/ 17 1017.0R
GOOSES REEF MD   0900   48     320/ 16/ 19   N/A
COVE POINT MD    0900   47     320/ 11/ 15 1016.5R
SOLOMONS ISLAND  0900      55                N/A
BISHOPS HEAD MD  0900   48 51  320/ 14/ 20 1016.2R
PINEY POINT MD   0900          340/ 20/ 22   N/A
POTOMAC MD       0900   49     330/ 16/ 21 1016.3S
CAMBRIDGE MD     0900   49 56  310/ 13/ 19 1015.8R
LEWISETTA VA     0900   49 57  320/ 13/ 17 1017.0R
RAPPAHANNOCK LGT 0900          320/ 19/ 22 1017.0R
STINGRAY PT      0900   49     330/ 14/ 16 1017.0S
YORK RVR RNG VA  0900   51     350/ 18/ 21 1016.4R
YORKTOWN VA      0900   50 56  320/ 13/ 16 1017.1R
JAMESTOWN VA     0900   48      10/  6/  8   N/A
DOMINION TERM VA 0900   50     330/  2/  8 1017.1R
KIPTOPEKE VA     0900      56  360/ 17/ 24   N/A
CHES BAY BRIDGE  0900   51 54  320/ 19/ 22 1016.7S
CAPE HENRY VA    0900   51     330/ 18/ 22   N/A
CHESAPEAKE LGHT  0800   50     350/ 18/ 19 1016.7R
WILLOUBY STN VA  0900   50     350/ 12/ 16 1016.4R
S CRANEY ISL VA  0900          320/ 13/ 19 1017.1R
CAPE HENRY BUOY  0900      47                N/A     4/ 5
1ST LANDING BUOY 0900      49                N/A     3/ 4   2/ 9
64NM E OF VA BCH 0900   49 48  340/ 17/ 23 1015.4R   6/ 6
DUCK PIER NC     0900   50 51   10/ 14/ 17 1015.3S
44100 DUCK FRF   0900      49                N/A     4/ 5
44056 DUCK FRF   0900      51                N/A     4/ 5   2/14
OREGON INLET NC  0900   49 56  360/ 10/ 15 1016.6S
HATTERAS NC      0900   55 61   20/ 19/ 24 1016.4S
DIAMOND SHLS NC  0900   57 75  360/ 25/ 29 1015.1R   5/ 8   2/14
CAPE LOOKOUT NC  0800   58      20/ 10/ 10 1015.5R
FRYING PAN SHLS  0900   68 68   50/  8/  8 1014.4R   3/ 8   2/ 8
$$



USA.gov is the U.S. government's official web portal to all federal, state and local government web resources and services.